Location: Livorno
(43.5500°N, 10.3170°E)
Time: 19:34:10
(UTC+01:00)

Envisat - Pass Details

Date: 30 October 2020
Orbit: 764 x 766 km, 98.1° (Epoch: 05 December)

Event Time Altitude Azimuth Distance (km) Brightness Sun altitude
Rises 06:07:36 0° 15° (NNE) 3,242 6.3 -8.6°
Reaches altitude 10° 06:09:56 10° 19° (NNE) 2,311 5.6 -8.2°
Maximum altitude 06:15:00 65° 101° (E) 839 3.6 -7.3°
Drops below altitude 10° 06:20:01 10° 184° (S) 2,293 5.6 -6.4°
Sets 06:22:20 0° 187° (S) 3,215 6.3 -6.0°
